This is the latest recevied weather packets stored in our database for station/object DG1GMY-13. If no packets are shown the sender has not sent any weather packets the latest 10 day(s).
| Time | Temp. | Humidity | Pressure | Rain* | Wind** | Luminosity | Snow |
|---|---|---|---|---|---|---|---|
| 1787932416 | 25° C | 47% | 1012.8 hPa | - | - | - | - |
| 1787930610 | 25.56° C | 51% | 1012.7 hPa | - | - | - | - |
| 1787928804 | 25° C | 63% | 1012.5 hPa | - | - | - | - |
| 1787926998 | 25° C | 63% | 1012.7 hPa | - | - | - | - |
| 1787925192 | 25° C | 65% | 1013 hPa | - | - | - | - |
| 1787923386 | 25° C | 73% | 1013 hPa | - | - | - | - |
| 1787921580 | 24.44° C | 79% | 1013.4 hPa | - | - | - | - |
| 1787919774 | 23.89° C | 88% | 1013.5 hPa | - | - | - | - |
| 1787917968 | 23.33° C | 93% | 1013.5 hPa | - | - | - | - |
| 1787916162 | 23.89° C | 98% | 1013.7 hPa | - | - | - | - |
| 1787914356 | 23.89° C | 100% | 1013 hPa | - | - | - | - |
| 1787912550 | 23.33° C | 100% | 1013 hPa | - | - | - | - |
| 1787910744 | 22.22° C | 100% | 1012.8 hPa | - | - | - | - |
| 1787908938 | 22.22° C | 100% | 1012.6 hPa | - | - | - | - |
| 1787907132 | 21.11° C | 100% | 1012.2 hPa | - | - | - | - |
| 1787905327 | 19.44° C | 100% | 1012.5 hPa | - | - | - | - |
| 1787903519 | 20° C | 100% | 1011.9 hPa | - | - | - | - |
| 1787901714 | 20.56° C | 100% | 1010.5 hPa | - | - | - | - |
| 1787899908 | 21.67° C | 100% | 1010.9 hPa | - | - | - | - |
| 1787898102 | 20.56° C | 100% | 1010.7 hPa | - | - | - | - |
| 1787896296 | 19.44° C | 100% | 1011.5 hPa | - | - | - | - |
| 1787894490 | 18.89° C | 100% | 1012.6 hPa | - | - | - | - |
| 1787892684 | 18.89° C | 100% | 1013 hPa | - | - | - | - |
| 1787890878 | 18.89° C | 100% | 1010.9 hPa | - | - | - | - |
| 1787889072 | 18.89° C | 100% | 1011.3 hPa | - | - | - | - |
* Rain since midnight (hover to see other rain measurements)
** Current wind speed in m/s (hover to see current wind gust speed)